FW3342 Weather Reports


time (UTC)temp
C
wind
direction
speed
KPH
gust
KPH
rain 1hr
cm
rain 24hr
cm
rain mn
cm
humidity
%
barometer
mb
20260507194522 15 250 4.8 9.7 0.00 0.33 0.00 41 1004.4
20260507193018 15 122 3.2 12.9 0.00 0.33 0.00 41 1004.5
20260507191517 14 314 4.8 14.5 0.00 0.33 0.00 43 1004.6
20260507190018 14 232 6.4 14.5 0.00 0.33 0.00 41 1004.8
20260507184516 13 345 1.6 11.3 0.00 0.69 0.00 40 1005.0
20260507183033 13 252 8.0 16.1 0.00 0.69 0.00 42 1005.0
20260507181514 14 279 6.4 16.1 0.00 0.69 0.00 45 1005.2
20260507180014 14 231 6.4 14.5 0.00 0.69 0.00 46 1005.0
20260507174515 15 234 1.6 12.9 0.00 0.79 0.00 41 1005.1
20260507173012 15 260 6.4 16.1 0.00 0.79 0.00 42 1005.0
20260507171511 15 328 1.6 11.3 0.00 0.79 0.00 43 1005.1
20260507170008 14 248 4.8 16.1 0.00 0.79 0.00 45 1005.3
20260507164505 13 236 9.7 16.1 0.00 0.79 0.00 46 1005.3
20260507163004 13 309 4.8 14.5 0.00 0.79 0.00 52 1005.6
20260507161503 13 259 4.8 12.9 0.00 0.79 0.00 46 1005.6
20260507160059 12 255 6.4 12.9 0.00 0.79 0.00 58 1005.7
20260507154556 12 252 3.2 14.5 0.00 0.79 0.00 62 1005.9
20260507153102 11 237 6.4 17.7 0.00 0.79 0.00 66 1006.2
20260507151554 12 255 3.2 12.9 0.00 0.79 0.00 65 1006.3
20260507150052 12 229 3.2 8.0 0.00 0.79 0.00 63 1006.3
20260507144553 11 261 1.6 12.9 0.00 0.79 0.00 69 1006.6
20260507143055 12 239 3.2 9.7 0.00 0.79 0.00 67 1006.3
20260507141548 12 267 4.8 12.9 0.00 0.79 0.00 65 1006.3
20260507140055 11 243 3.2 14.5 0.00 0.79 0.00 69 1006.3
20260507134543 12 244 3.2 8.0 0.00 0.79 0.00 67 1006.3
20260507133039 11 257 3.2 9.7 0.00 0.79 0.00 69 1006.6
20260507131538 11 256 3.2 11.3 0.00 0.79 0.00 71 1006.5
20260507130038 11 238 1.6 8.0 0.00 0.79 0.00 70 1006.5
20260507124546 10 249 1.6 8.0 0.00 0.79 0.00 72 1006.4
20260507123029 10 257 3.2 12.9 0.00 0.79 0.00 76 1006.6
20260507121526 8 281 3.2 12.9 0.00 0.79 0.00 80 1006.8
20260507120025 8 252 3.2 9.7 0.00 0.79 0.00 82 1006.8
20260507114525 8 249 1.6 8.0 0.00 0.79 0.00 83 1006.6
20260507113020 7 247 1.6 6.4 0.00 0.79 0.00 87 1006.6
20260507111519 7 244 1.6 6.4 0.00 0.79 0.00 87 1006.5
20260507110027 7 247 0.0 4.8 0.00 0.79 0.00 87 1006.3
20260507104516 7 186 0.0 4.8 0.00 0.79 0.00 88 1006.4
20260507103015 7 22 0.0 8.0 0.00 0.79 0.00 88 1006.4
20260507101514 7 18 0.0 4.8 0.00 0.79 0.00 88 1005.9
20260507100021 7 54 0.0 6.4 0.00 0.79 0.00 89 1006.4
20260507094512 7 323 3.2 9.7 0.00 0.79 0.00 90 1006.4
20260507093013 7 273 0.0 6.4 0.00 0.79 0.00 90 1006.2
20260507091510 7 264 1.6 8.0 0.00 0.79 0.00 91 1006.2
20260507090007 7 307 3.2 9.7 0.00 0.79 0.00 91 1005.9
20260507084501 7 250 1.6 9.7 0.00 0.79 0.00 91 1005.8
20260507083101 7 269 1.6 6.4 0.00 0.79 0.00 91 1005.7
20260507083002 7 250 1.6 6.4 0.00 0.79 0.00 91 1005.6
20260507081600 7 252 0.0 4.8 0.00 0.79 0.00 91 1005.5
20260507074607 8 257 3.2 9.7 0.00 0.79 0.00 91 1005.5
20260507073055 8 246 1.6 12.9 0.00 0.79 0.00 92 1005.1
20260507071553 8 242 0.0 9.7 0.00 0.79 0.00 91 1005.4
20260507070106 8 264 1.6 11.3 0.00 0.79 0.00 92 1005.2
20260507064547 8 301 4.8 17.7 0.00 0.79 0.00 92 1005.2
20260507063055 8 251 1.6 9.7 0.00 0.79 0.00 92 1005.1
20260507061547 8 248 3.2 11.3 0.00 0.79 0.00 92 1004.9
20260507060045 8 261 3.2 11.3 0.00 0.79 0.00 92 1005.2
20260507054543 8 245 3.2 9.7 0.00 0.79 0.00 92 1005.0
20260507053040 8 243 3.2 9.7 0.00 0.79 0.00 92 1005.1
20260507051536 8 296 3.2 9.7 0.00 0.79 0.00 92 1005.1
20260507050036 9 245 1.6 11.3 0.00 0.79 0.00 92 1004.9
20260507044531 9 259 3.2 11.3 0.00 0.79 0.00 93 1005.0
20260507043029 9 240 3.2 11.3 0.00 0.79 0.00 93 1004.9
20260507041526 10 264 3.2 11.3 0.05 0.79 0.00 94 1004.9
20260507040025 10 245 4.8 11.3 0.05 0.79 0.00 94 1004.6
20260507034531 10 317 4.8 12.9 0.08 0.79 0.79 94 1004.5
20260507033017 10 248 3.2 11.3 0.08 0.79 0.79 93 1004.5
20260507031513 11 261 4.8 11.3 0.03 0.71 0.71 92 1004.7
20260507030012 11 8 4.8 14.5 0.05 0.71 0.71 91 1004.4
20260507024506 12 262 4.8 11.3 0.05 0.71 0.71 93 1004.3
20260507023001 13 238 3.2 9.7 0.05 0.71 0.71 93 1004.1
20260507021559 14 260 0.0 11.3 0.05 0.71 0.71 94 1003.9
20260507020055 14 250 4.8 12.9 0.03 0.69 0.69 94 1003.5
20260507014556 14 246 4.8 14.5 0.00 0.66 0.66 94 1003.6
20260507013108 14 248 3.2 16.1 0.00 0.66 0.66 94 1003.7
20260507011549 14 245 6.4 14.5 0.00 0.66 0.66 94 1003.6
20260507010055 14 197 6.4 12.9 0.00 0.66 0.66 94 1003.7
20260507004548 14 264 4.8 12.9 0.00 0.66 0.66 94 1003.6
20260507003044 14 253 8.0 14.5 0.00 0.66 0.66 94 1003.7
20260507001549 14 197 4.8 12.9 0.00 0.66 0.66 94 1003.5
20260507000042 14 251 4.8 11.3 0.00 0.66 0.66 94 1003.5
20260506234541 15 248 4.8 14.5 0.00 0.66 0.66 93 1003.3
20260506233054 15 247 4.8 14.5 0.00 0.66 0.66 93 1003.4
20260506231539 15 233 4.8 14.5 0.00 0.66 0.66 93 1003.5
20260506230033 15 256 4.8 9.7 0.00 0.66 0.66 93 1003.5
20260506224532 15 247 4.8 17.7 0.00 0.66 0.66 93 1003.6
20260506223029 15 258 4.8 16.1 0.00 0.66 0.66 93 1003.6
20260506221527 15 240 6.4 16.1 0.03 0.66 0.66 93 1003.7
20260506220029 15 222 4.8 14.5 0.05 0.66 0.66 93 1003.8
20260506214524 15 191 1.6 12.9 0.05 0.66 0.66 93 1003.8
20260506213023 15 146 4.8 14.5 0.05 0.66 0.66 93 1004.0
20260506211526 15 234 4.8 11.3 0.08 0.64 0.64 93 1004.1
20260506210030 15 179 3.2 14.5 0.08 0.61 0.61 93 1004.1
20260506204520 15 148 3.2 12.9 0.10 0.61 0.61 93 1004.3
20260506203019 15 217 3.2 11.3 0.13 0.61 0.61 93 1004.4
20260506201519 15 255 0.0 11.3 0.08 0.56 0.56 93 1004.5
20260506200033 15 244 1.6 9.7 0.08 0.53 0.53 92 1004.5